Content
SEND FEEDBACK

Daily
Averages
Monthly
Summary
United States of America

CRESTED BUTTE, COLORADO


Home > North America > United States > Colorado
Elevation: 9277 feet     Latitude: 38 52N     Longitude: 106 58W

WEATHER
 
SELECT A DAY
Number of Records: 448,153;   Date Range: 1/1/95 - 9/3/14
 
SHARE

PRINT THIS DATA

[ ← Previous Day ]
WEATHER ALMANAC - JULY 1, 2014
[ Next Day → ]
[ °C ]   °F
Weather ElementAverageHighLow
Temperature63.6 °F80.6 °F (2:35 pm)44.6 °F (3:55 am)
Dewpoint31.5 °F42.8 °F (11:15 pm)24.8 °F (3:55 pm)
Humidity34.4 %58 % (1:35 am)13 % (3:55 pm)
Barometer30.27 in30.34 in (11:55 pm)30.21 in (4:55 pm)
Wind Speed6.6 mph18.4 mph (4:55 pm)
Wind Gust24.2 mph (6:15 pm)
Weather ElementAverage
Visibility10 mi
Wind DirectionSSE (160.3 °)

Weather ElementTotal
Precipitation---
Heating Degree Days2.4 (Base 65)
Growing Degree Days12.6 (Base 50)
Averaged from 66 records on July 1, 2014
WEATHER CONDITIONS BREAKOUT
WIND DIRECTION BREAKOUT
WEATHER BY HOUR - JULY 1, 2014
[ °C ]   °F
Local TimeTemperatureDewpointHumidityBarometerVisibilityWind DirectionWind SpeedGust SpeedPrecipitationEventsConditions
12:35 AM55.4 °F30.2 °F38 %30.23 in10.0 miCalmClear
12:55 AM53.6 °F33.8 °F47 %30.23 in10.0 miNNE (30°)3.5 mphClear
1:15 AM53.6 °F30.2 °F41 %30.24 in10.0 miCalmClear
1:35 AM48.2 °F33.8 °F58 %30.24 in10.0 miCalmClear
1:55 AM48.2 °F32.0 °F54 %30.24 in10.0 miEast (80°)5.8 mphClear
2:15 AM48.2 °F32.0 °F54 %30.25 in10.0 miNE (50°)4.6 mphClear
2:35 AM48.2 °F30.2 °F50 %30.25 in10.0 miNNW (340°)4.6 mphClear
2:55 AM48.2 °F28.4 °F46 %30.26 in10.0 miCalmClear
3:15 AM46.4 °F30.2 °F53 %30.27 in10.0 miCalmClear
3:35 AM46.4 °F32.0 °F57 %30.28 in10.0 miCalmClear
3:55 AM44.6 °F30.2 °F57 %30.28 in10.0 miCalmClear
4:15 AM46.4 °F30.2 °F53 %30.29 in10.0 miNNE (20°)3.5 mphClear
4:35 AM46.4 °F30.2 °F53 %30.29 in10.0 miNorth (360°)8.1 mphClear
5:15 AM46.4 °F30.2 °F53 %30.30 in10.0 miNNE (20°)5.8 mphClear
5:35 AM44.6 °F30.2 °F57 %30.31 in10.0 miNNE (20°)5.8 mphClear
5:55 AM44.6 °F30.2 °F57 %30.31 in10.0 miNNE (30°)5.8 mphClear
6:15 AM44.6 °F30.2 °F57 %30.31 in10.0 miENE (60°)4.6 mphClear
6:35 AM46.4 °F30.2 °F53 %30.32 in10.0 miNE (40°)4.6 mphClear
6:55 AM46.4 °F30.2 °F53 %30.33 in10.0 miNorth (360°)4.6 mphClear
7:15 AM48.2 °F32.0 °F54 %30.33 in10.0 miNorth (360°)4.6 mphClear
7:35 AM51.8 °F33.8 °F50 %30.33 in9.0 miNorth (10°)3.5 mphClear
7:55 AM53.6 °F33.8 °F47 %30.33 in10.0 miNorth (360°)6.9 mphClear
8:15 AM55.4 °F33.8 °F44 %30.33 in10.0 miNorth (360°)6.9 mphClear
8:35 AM57.2 °F35.6 °F44 %30.33 in9.0 miNNE (20°)6.9 mphClear
8:55 AM59.0 °F37.4 °F45 %30.33 in10.0 miNorth (350°)6.9 mphClear
9:15 AM62.6 °F39.2 °F42 %30.33 in10.0 miNorth (10°)6.9 mphClear
9:35 AM62.6 °F39.2 °F42 %30.32 in10.0 miNNW (340°)8.1 mphClear
10:15 AM66.2 °F39.2 °F37 %30.31 in10.0 miNorth (360°)3.5 mphClear
10:35 AM66.2 °F39.2 °F37 %30.30 in10.0 miNorth (10°)3.5 mphClear
11:15 AM69.8 °F35.6 °F28 %30.30 in10.0 miCalmClear
11:35 AM71.6 °F35.6 °F27 %30.30 in10.0 miSSW (210°)3.5 mphClear
11:55 AM71.6 °F33.8 °F25 %30.29 in10.0 miCalmClear
12:15 PM73.4 °F33.8 °F23 %30.29 in10.0 miSSE (160°)3.5 mphClear
12:35 PM73.4 °F33.8 °F23 %30.28 in10.0 miSSW (200°)4.6 mphClear
12:55 PM75.2 °F30.2 °F19 %30.27 in10.0 miCalmClear
1:15 PM77.0 °F33.8 °F21 %30.27 in10.0 miWest (270°)3.5 mphClear
1:35 PM78.8 °F33.8 °F20 %30.26 in10.0 miNNW (330°)3.5 mphClear
2:15 PM78.8 °F33.8 °F20 %30.25 in10.0 miSE (130°)5.8 mphClear
2:35 PM80.6 °F33.8 °F18 %30.24 in10.0 miSW (220°)8.1 mphClear
2:55 PM80.6 °F33.8 °F18 %30.24 in10.0 miWest (260°)11.5 mph16.1 mphClear
3:15 PM80.6 °F30.2 °F16 %30.24 in10.0 miWNW (300°)9.2 mphClear
3:35 PM78.8 °F26.6 °F15 %30.24 in10.0 miNorth (350°)6.9 mphClear
3:55 PM80.6 °F24.8 °F13 %30.23 in10.0 miNorth (10°)13.8 mph17.3 mphClear
4:15 PM80.6 °F24.8 °F13 %30.23 in10.0 miNorth (10°)15.0 mph23.0 mphClear
4:35 PM80.6 °F26.6 °F14 %30.22 in10.0 miNorth (10°)17.3 mph21.9 mphClear
4:55 PM80.6 °F28.4 °F15 %30.21 in10.0 miNorth (10°)18.4 mph23.0 mphClear
5:35 PM80.6 °F28.4 °F15 %30.21 in10.0 miNorth (350°)15.0 mph21.9 mphClear
5:55 PM78.8 °F26.6 °F15 %30.21 in10.0 miNNW (340°)15.0 mph21.9 mphClear
6:15 PM78.8 °F26.6 °F15 %30.21 in10.0 miNorth (360°)17.3 mph24.2 mphClear
6:35 PM78.8 °F26.6 °F15 %30.21 in10.0 miNorth (350°)16.1 mph24.2 mphClear
6:55 PM78.8 °F24.8 °F14 %30.22 in10.0 miNNW (340°)10.4 mphClear
7:15 PM77.0 °F24.8 °F14 %30.22 in10.0 miNNW (330°)12.7 mphClear
7:35 PM75.2 °F24.8 °F15 %30.23 in10.0 miNW (320°)11.5 mph16.1 mphClear
7:55 PM75.2 °F24.8 °F15 %30.24 in10.0 miNNW (330°)6.9 mphClear
8:15 PM73.4 °F24.8 °F16 %30.24 in10.0 miNW (320°)6.9 mphClear
8:35 PM69.8 °F24.8 °F18 %30.25 in10.0 miNW (320°)8.1 mphClear
8:55 PM69.8 °F26.6 °F20 %30.25 in10.0 miNNE (30°)5.8 mphClear
9:15 PM66.2 °F28.4 °F24 %30.27 in10.0 miSSE (150°)3.5 mphClear
9:35 PM64.4 °F30.2 °F28 %30.28 in10.0 miNNE (30°)6.9 mphClear
9:55 PM62.6 °F30.2 °F30 %30.30 in10.0 miCalmClear
10:15 PM59.0 °F32.0 °F36 %30.31 in10.0 miWNW (300°)3.5 mphClear
10:35 PM62.6 °F26.6 °F26 %30.32 in10.0 miNE (40°)9.2 mphClear
10:55 PM62.6 °F39.2 °F42 %30.33 in10.0 miEast (100°)16.1 mphClear
11:15 PM62.6 °F42.8 °F48 %30.33 in10.0 miEast (80°)12.7 mphClear
11:35 PM60.8 °F42.8 °F52 %30.33 in10.0 miEast (80°)10.4 mphClear
11:55 PM60.8 °F42.8 °F52 %30.34 in10.0 miNorth (350°)5.8 mphClear
Hourly data recorded from KGUC, located miles away from Crested Butte, Colorado







STORIES FROM OUR PARTNERS